Year,Month,Day,Hour,Minute,Value (Times are PST for temperature in C)
2015,04,18,00,00,10.20
2015,04,18,00,01,10.20
2015,04,18,00,02,10.20
2015,04,18,00,03,10.20
2015,04,18,00,04,10.20
2015,04,18,00,05,10.20
2015,04,18,00,06,10.20
2015,04,18,00,07,10.20
2015,04,18,00,08,10.20
2015,04,18,00,09,10.20
2015,04,18,00,10,10.20
2015,04,18,00,11,10.20
2015,04,18,00,12,10.10
2015,04,18,00,13,10.10
2015,04,18,00,14,10.10
2015,04,18,00,15,10.10
2015,04,18,00,16,10.00
2015,04,18,00,17,10.00
2015,04,18,00,18,10.00
2015,04,18,00,19,10.00
2015,04,18,00,20,10.00
2015,04,18,00,21,9.90
2015,04,18,00,22,9.90
2015,04,18,00,23,9.90
2015,04,18,00,24,9.90
2015,04,18,00,25,9.90
2015,04,18,00,26,9.90
2015,04,18,00,27,9.90
2015,04,18,00,28,9.90
2015,04,18,00,29,9.90
2015,04,18,00,30,9.90
2015,04,18,00,31,9.90
2015,04,18,00,32,9.90
2015,04,18,00,33,9.90
2015,04,18,00,34,9.90
2015,04,18,00,35,9.90
2015,04,18,00,36,9.90
2015,04,18,00,37,9.90
2015,04,18,00,38,9.90
2015,04,18,00,39,9.90
2015,04,18,00,40,9.90
2015,04,18,00,41,9.90
2015,04,18,00,42,9.90
2015,04,18,00,43,9.90
2015,04,18,00,44,9.90
2015,04,18,00,45,9.90
2015,04,18,00,46,9.90
2015,04,18,00,47,9.80
2015,04,18,00,48,9.90
2015,04,18,00,49,9.80
2015,04,18,00,50,9.80
2015,04,18,00,51,9.80
2015,04,18,00,52,9.80
2015,04,18,00,53,9.80
2015,04,18,00,54,9.70
2015,04,18,00,55,9.70
2015,04,18,00,56,9.70
2015,04,18,00,57,9.70
2015,04,18,00,58,9.60
2015,04,18,00,59,9.60
2015,04,18,01,00,9.60
2015,04,18,01,01,9.60
2015,04,18,01,02,9.50
2015,04,18,01,03,9.50
2015,04,18,01,04,9.50
2015,04,18,01,05,9.40
2015,04,18,01,06,9.40
2015,04,18,01,07,9.40
2015,04,18,01,08,9.40
2015,04,18,01,09,9.40
2015,04,18,01,10,9.40
2015,04,18,01,11,9.40
2015,04,18,01,12,9.40
2015,04,18,01,13,9.30
2015,04,18,01,14,9.30
2015,04,18,01,15,9.30
2015,04,18,01,16,9.30
2015,04,18,01,17,9.30
2015,04,18,01,18,9.30
2015,04,18,01,19,9.30
2015,04,18,01,20,9.30
2015,04,18,01,21,9.20
2015,04,18,01,22,9.20
2015,04,18,01,23,9.20
2015,04,18,01,24,9.10
2015,04,18,01,25,9.10
2015,04,18,01,26,9.10
2015,04,18,01,27,9.10
2015,04,18,01,28,9.00
2015,04,18,01,29,9.00
2015,04,18,01,30,9.00
2015,04,18,01,31,9.00
2015,04,18,01,32,9.00
2015,04,18,01,33,9.00
2015,04,18,01,34,8.90
2015,04,18,01,35,8.90
2015,04,18,01,36,8.90
2015,04,18,01,37,8.90
2015,04,18,01,38,8.90
2015,04,18,01,39,8.90
2015,04,18,01,40,8.90
2015,04,18,01,41,8.80
2015,04,18,01,42,8.80
2015,04,18,01,43,8.80
2015,04,18,01,44,8.80
2015,04,18,01,45,8.80
2015,04,18,01,46,8.80
2015,04,18,01,47,8.80
2015,04,18,01,48,8.80
2015,04,18,01,49,8.80
2015,04,18,01,50,8.90
2015,04,18,01,51,8.80
2015,04,18,01,52,8.80
2015,04,18,01,53,8.80
2015,04,18,01,54,8.80
2015,04,18,01,55,8.80
2015,04,18,01,56,8.80
2015,04,18,01,57,8.80
2015,04,18,01,58,8.80
2015,04,18,01,59,8.80
2015,04,18,02,00,8.80
2015,04,18,02,01,8.80
2015,04,18,02,02,8.80
2015,04,18,02,03,8.80
2015,04,18,02,04,8.80
2015,04,18,02,05,8.80
2015,04,18,02,06,8.80
2015,04,18,02,07,8.80
2015,04,18,02,08,8.80
2015,04,18,02,09,8.80
2015,04,18,02,10,8.80
2015,04,18,02,11,8.80
2015,04,18,02,12,8.80
2015,04,18,02,13,8.80
2015,04,18,02,14,8.80
2015,04,18,02,15,8.80
2015,04,18,02,16,8.80
2015,04,18,02,17,8.80
2015,04,18,02,18,8.80
2015,04,18,02,19,8.80
2015,04,18,02,20,8.80
2015,04,18,02,21,8.80
2015,04,18,02,22,8.80
2015,04,18,02,23,8.80
2015,04,18,02,24,8.80
2015,04,18,02,25,8.70
2015,04,18,02,26,8.70
2015,04,18,02,27,8.70
2015,04,18,02,28,8.70
2015,04,18,02,29,8.70
2015,04,18,02,30,8.70
2015,04,18,02,31,8.60
2015,04,18,02,32,8.60
2015,04,18,02,33,8.70
2015,04,18,02,34,8.70
2015,04,18,02,35,8.70
2015,04,18,02,36,8.60
2015,04,18,02,37,8.60
2015,04,18,02,38,8.60
2015,04,18,02,39,8.60
2015,04,18,02,40,8.60
2015,04,18,02,41,8.50
2015,04,18,02,42,8.50
2015,04,18,02,43,8.50
2015,04,18,02,44,8.50
2015,04,18,02,45,8.50
2015,04,18,02,46,8.40
2015,04,18,02,47,8.40
2015,04,18,02,48,8.40
2015,04,18,02,49,8.40
2015,04,18,02,50,8.40
2015,04,18,02,51,8.40
2015,04,18,02,52,8.30
2015,04,18,02,53,8.30
2015,04,18,02,54,8.30
2015,04,18,02,55,8.30
2015,04,18,02,56,8.30
2015,04,18,02,57,8.30
2015,04,18,02,58,8.30
2015,04,18,02,59,8.20
2015,04,18,03,00,8.20
2015,04,18,03,01,8.20
2015,04,18,03,02,8.20
2015,04,18,03,03,8.20
2015,04,18,03,04,8.10
2015,04,18,03,05,8.10
2015,04,18,03,06,8.10
2015,04,18,03,07,8.10
2015,04,18,03,08,8.10
2015,04,18,03,09,8.10
2015,04,18,03,10,8.10
2015,04,18,03,11,8.10
2015,04,18,03,12,8.10
2015,04,18,03,13,8.10
2015,04,18,03,14,8.10
2015,04,18,03,15,8.10
2015,04,18,03,16,8.10
2015,04,18,03,17,8.10
2015,04,18,03,18,8.10
2015,04,18,03,19,8.00
2015,04,18,03,20,8.00
2015,04,18,03,21,8.00
2015,04,18,03,22,8.00
2015,04,18,03,23,7.90
2015,04,18,03,24,7.90
2015,04,18,03,25,7.90
2015,04,18,03,26,7.90
2015,04,18,03,27,7.90
2015,04,18,03,28,7.80
2015,04,18,03,29,7.80
2015,04,18,03,30,7.80
2015,04,18,03,31,7.80
2015,04,18,03,32,7.80
2015,04,18,03,33,7.80
2015,04,18,03,34,7.80
2015,04,18,03,35,7.80
2015,04,18,03,36,7.80
2015,04,18,03,37,7.80
2015,04,18,03,38,7.80
2015,04,18,03,39,7.70
2015,04,18,03,40,7.70
2015,04,18,03,41,7.70
2015,04,18,03,42,7.70
2015,04,18,03,43,7.70
2015,04,18,03,44,7.70
2015,04,18,03,45,7.80
2015,04,18,03,46,7.80
2015,04,18,03,47,7.80
2015,04,18,03,48,7.90
2015,04,18,03,49,7.90
2015,04,18,03,50,7.90
2015,04,18,03,51,8.00
2015,04,18,03,52,8.00
2015,04,18,03,53,8.00
2015,04,18,03,54,8.10
2015,04,18,03,55,8.10
2015,04,18,03,56,8.10
2015,04,18,03,57,8.20
2015,04,18,03,58,8.20
2015,04,18,03,59,8.20
2015,04,18,04,00,8.20
2015,04,18,04,01,8.20
2015,04,18,04,02,8.20
2015,04,18,04,03,8.20
2015,04,18,04,04,8.30
2015,04,18,04,05,8.30
2015,04,18,04,06,8.30
2015,04,18,04,07,8.30
2015,04,18,04,08,8.30
2015,04,18,04,09,8.30
2015,04,18,04,10,8.20
2015,04,18,04,11,8.20
2015,04,18,04,12,8.20
2015,04,18,04,13,8.20
2015,04,18,04,14,8.10
2015,04,18,04,15,8.10
2015,04,18,04,16,8.00
2015,04,18,04,17,7.90
2015,04,18,04,18,7.90
2015,04,18,04,19,7.80
2015,04,18,04,20,7.80
2015,04,18,04,21,7.80
2015,04,18,04,22,7.70
2015,04,18,04,23,7.70
2015,04,18,04,24,7.60
2015,04,18,04,25,7.50
2015,04,18,04,26,7.50
2015,04,18,04,27,7.40
2015,04,18,04,28,7.40
2015,04,18,04,29,7.30
2015,04,18,04,30,7.30
2015,04,18,04,31,7.30
2015,04,18,04,32,7.20
2015,04,18,04,33,7.20
2015,04,18,04,34,7.20
2015,04,18,04,35,7.10
2015,04,18,04,36,7.00
2015,04,18,04,37,7.00
2015,04,18,04,38,6.90
2015,04,18,04,39,6.80
2015,04,18,04,40,6.70
2015,04,18,04,41,6.70
2015,04,18,04,42,6.60
2015,04,18,04,43,6.50
2015,04,18,04,44,6.30
2015,04,18,04,45,6.30
2015,04,18,04,46,6.20
2015,04,18,04,47,6.10
2015,04,18,04,48,6.00
2015,04,18,04,49,5.90
2015,04,18,04,50,5.80
2015,04,18,04,51,5.80
2015,04,18,04,52,5.70
2015,04,18,04,53,5.70
2015,04,18,04,54,5.60
2015,04,18,04,55,5.60
2015,04,18,04,56,5.50
2015,04,18,04,57,5.50
2015,04,18,04,58,5.40
2015,04,18,04,59,5.40
2015,04,18,05,00,5.30
2015,04,18,05,01,5.30
2015,04,18,05,02,5.30
2015,04,18,05,03,5.30
2015,04,18,05,04,5.30
2015,04,18,05,05,5.20
2015,04,18,05,06,5.20
2015,04,18,05,07,5.20
2015,04,18,05,08,5.10
2015,04,18,05,09,5.10
2015,04,18,05,10,5.00
2015,04,18,05,11,5.00
2015,04,18,05,12,4.90
2015,04,18,05,13,4.90
2015,04,18,05,14,4.80
2015,04,18,05,15,4.70
2015,04,18,05,16,4.70
2015,04,18,05,17,4.60
2015,04,18,05,18,4.60
2015,04,18,05,19,4.60
2015,04,18,05,20,4.60
2015,04,18,05,21,4.60
2015,04,18,05,22,4.60
2015,04,18,05,23,4.60
2015,04,18,05,24,4.60
2015,04,18,05,25,4.60
2015,04,18,05,26,4.60
2015,04,18,05,27,4.60
2015,04,18,05,28,4.60
2015,04,18,05,29,4.60
2015,04,18,05,30,4.60
2015,04,18,05,31,4.60
2015,04,18,05,32,4.60
2015,04,18,05,33,4.60
2015,04,18,05,34,4.60
2015,04,18,05,35,4.60
2015,04,18,05,36,4.60
2015,04,18,05,37,4.60
2015,04,18,05,38,4.60
2015,04,18,05,39,4.60
2015,04,18,05,40,4.60
2015,04,18,05,41,4.70
2015,04,18,05,42,4.70
2015,04,18,05,43,4.70
2015,04,18,05,44,4.70
2015,04,18,05,45,4.70
2015,04,18,05,46,4.70
2015,04,18,05,47,4.70
2015,04,18,05,48,4.70
2015,04,18,05,49,4.70
2015,04,18,05,50,4.70
2015,04,18,05,51,4.70
2015,04,18,05,52,4.70
2015,04,18,05,53,4.70
2015,04,18,05,54,4.70
2015,04,18,05,55,4.70
2015,04,18,05,56,4.70
2015,04,18,05,57,4.70
2015,04,18,05,58,4.70
2015,04,18,05,59,4.70
2015,04,18,06,00,4.70
2015,04,18,06,01,4.70
2015,04,18,06,02,4.70
2015,04,18,06,03,4.70
2015,04,18,06,04,4.70
2015,04,18,06,05,4.70
2015,04,18,06,06,4.70
2015,04,18,06,07,4.70
2015,04,18,06,08,4.70
2015,04,18,06,09,4.70
2015,04,18,06,10,4.70
2015,04,18,06,11,4.70
2015,04,18,06,12,4.60
2015,04,18,06,13,4.60
2015,04,18,06,14,4.60
2015,04,18,06,15,4.60
2015,04,18,06,16,4.60
2015,04,18,06,17,4.60
2015,04,18,06,18,4.50
2015,04,18,06,19,4.50
2015,04,18,06,20,4.40
2015,04,18,06,21,4.40
2015,04,18,06,22,4.40
2015,04,18,06,23,4.40
2015,04,18,06,24,4.40
2015,04,18,06,25,4.40
2015,04,18,06,26,4.40
2015,04,18,06,27,4.40
2015,04,18,06,28,4.40
2015,04,18,06,29,4.30
2015,04,18,06,30,4.30
2015,04,18,06,31,4.30
2015,04,18,06,32,4.30
2015,04,18,06,33,4.30
2015,04,18,06,34,4.30
2015,04,18,06,35,4.30
2015,04,18,06,36,4.30
2015,04,18,06,37,4.30
2015,04,18,06,38,4.30
2015,04,18,06,39,4.30
2015,04,18,06,40,4.30
2015,04,18,06,41,4.30
2015,04,18,06,42,4.30
2015,04,18,06,43,4.30
2015,04,18,06,44,4.30
2015,04,18,06,45,4.30
2015,04,18,06,46,4.30
2015,04,18,06,47,4.30
2015,04,18,06,48,4.30
2015,04,18,06,49,4.30
2015,04,18,06,50,4.30
2015,04,18,06,51,4.30
2015,04,18,06,52,4.30
2015,04,18,06,53,4.30
2015,04,18,06,54,4.30
2015,04,18,06,55,4.30
2015,04,18,06,56,4.30
2015,04,18,06,57,4.30
2015,04,18,06,58,4.40
2015,04,18,06,59,4.40
2015,04,18,07,00,4.40
2015,04,18,07,01,4.50
2015,04,18,07,02,4.50
2015,04,18,07,03,4.60
2015,04,18,07,04,4.60
2015,04,18,07,05,4.70
2015,04,18,07,06,4.70
2015,04,18,07,07,4.80
2015,04,18,07,08,4.80
2015,04,18,07,09,4.80
2015,04,18,07,10,4.90
2015,04,18,07,11,4.90
2015,04,18,07,12,4.90
2015,04,18,07,13,5.00
2015,04,18,07,14,5.00
2015,04,18,07,15,5.10
2015,04,18,07,16,5.10
2015,04,18,07,17,5.20
2015,04,18,07,18,5.20
2015,04,18,07,19,5.30
2015,04,18,07,20,5.30
2015,04,18,07,21,5.40
2015,04,18,07,22,5.40
2015,04,18,07,23,5.50
2015,04,18,07,24,5.60
2015,04,18,07,25,5.70
2015,04,18,07,26,5.80
2015,04,18,07,27,5.80
2015,04,18,07,28,5.80
2015,04,18,07,29,5.90
2015,04,18,07,30,5.90
2015,04,18,07,31,6.00
2015,04,18,07,32,6.10
2015,04,18,07,33,6.10
2015,04,18,07,34,6.20
2015,04,18,07,35,6.20
2015,04,18,07,36,6.30
2015,04,18,07,37,6.30
2015,04,18,07,38,6.40
2015,04,18,07,39,6.40
2015,04,18,07,40,6.50
2015,04,18,07,41,6.60
2015,04,18,07,42,6.60
2015,04,18,07,43,6.70
2015,04,18,07,44,6.80
2015,04,18,07,45,6.80
2015,04,18,07,46,6.90
2015,04,18,07,47,6.90
2015,04,18,07,48,7.00
2015,04,18,07,49,7.00
2015,04,18,07,50,7.10
2015,04,18,07,51,7.20
2015,04,18,07,52,7.20
2015,04,18,07,53,7.30
2015,04,18,07,54,7.30
2015,04,18,07,55,7.40
2015,04,18,07,56,7.40
2015,04,18,07,57,7.50
2015,04,18,07,58,7.60
2015,04,18,07,59,7.70
2015,04,18,08,00,7.70
2015,04,18,08,01,7.80
2015,04,18,08,02,7.80
2015,04,18,08,03,7.90
2015,04,18,08,04,8.00
2015,04,18,08,05,8.00
2015,04,18,08,06,8.10
2015,04,18,08,07,8.20
2015,04,18,08,08,8.20
2015,04,18,08,09,8.30
2015,04,18,08,10,8.40
2015,04,18,08,11,8.50
2015,04,18,08,12,8.50
2015,04,18,08,13,8.60
2015,04,18,08,14,8.70
2015,04,18,08,15,8.70
2015,04,18,08,16,8.70
2015,04,18,08,17,8.70
2015,04,18,08,18,8.70
2015,04,18,08,19,8.70
2015,04,18,08,20,8.70
2015,04,18,08,21,8.70
2015,04,18,08,22,8.70
2015,04,18,08,23,8.70
2015,04,18,08,24,8.70
2015,04,18,08,25,8.70
2015,04,18,08,26,8.80
2015,04,18,08,27,8.80
2015,04,18,08,28,8.80
2015,04,18,08,29,8.80
2015,04,18,08,30,8.80
2015,04,18,08,31,8.80
2015,04,18,08,32,8.80
2015,04,18,08,33,8.80
2015,04,18,08,34,8.80
2015,04,18,08,35,8.80
2015,04,18,08,36,8.80
2015,04,18,08,37,8.90
2015,04,18,08,38,8.90
2015,04,18,08,39,9.00
2015,04,18,08,40,9.00
2015,04,18,08,41,9.00
2015,04,18,08,42,9.10
2015,04,18,08,43,9.10
2015,04,18,08,44,9.10
2015,04,18,08,45,9.20
2015,04,18,08,46,9.20
2015,04,18,08,47,9.20
2015,04,18,08,48,9.20
2015,04,18,08,49,9.30
2015,04,18,08,50,9.30
2015,04,18,08,51,9.30
2015,04,18,08,52,9.30
2015,04,18,08,53,9.40
2015,04,18,08,54,9.40
2015,04,18,08,55,9.40
2015,04,18,08,56,9.50
2015,04,18,08,57,9.50
2015,04,18,08,58,9.60
2015,04,18,08,59,9.60
2015,04,18,09,00,9.60
2015,04,18,09,01,9.70
2015,04,18,09,02,9.70
2015,04,18,09,03,9.70
2015,04,18,09,04,9.70
2015,04,18,09,05,9.80
2015,04,18,09,06,9.80
2015,04,18,09,07,9.80
2015,04,18,09,08,9.80
2015,04,18,09,09,9.80
2015,04,18,09,10,9.90
2015,04,18,09,11,9.90
2015,04,18,09,12,9.90
2015,04,18,09,13,9.90
2015,04,18,09,14,10.00
2015,04,18,09,15,10.00
2015,04,18,09,16,10.00
2015,04,18,09,17,10.00
2015,04,18,09,18,10.00
2015,04,18,09,19,10.00
2015,04,18,09,20,10.00
2015,04,18,09,21,9.90
2015,04,18,09,22,9.90
2015,04,18,09,23,9.90
2015,04,18,09,24,9.90
2015,04,18,09,25,10.00
2015,04,18,09,26,10.00
2015,04,18,09,27,10.10
2015,04,18,09,28,10.10
2015,04,18,09,29,10.20
2015,04,18,09,30,10.20
2015,04,18,09,31,10.20
2015,04,18,09,32,10.20
2015,04,18,09,33,10.20
2015,04,18,09,34,10.10
2015,04,18,09,35,10.10
2015,04,18,09,36,10.10
2015,04,18,09,37,10.10
2015,04,18,09,38,10.10
2015,04,18,09,39,10.10
2015,04,18,09,40,10.20
2015,04,18,09,41,10.20
2015,04,18,09,42,10.20
2015,04,18,09,43,10.30
2015,04,18,09,44,10.30
2015,04,18,09,45,10.30
2015,04,18,09,46,10.30
2015,04,18,09,47,10.40
2015,04,18,09,48,10.40
2015,04,18,09,49,10.30
2015,04,18,09,50,10.30
2015,04,18,09,51,10.30
2015,04,18,09,52,10.30
2015,04,18,09,53,10.30
2015,04,18,09,54,10.20
2015,04,18,09,55,10.20
2015,04,18,09,56,10.20
2015,04,18,09,57,10.20
2015,04,18,09,58,10.20
2015,04,18,09,59,10.20
2015,04,18,10,00,10.20
2015,04,18,10,01,10.30
2015,04,18,10,02,10.30
2015,04,18,10,03,10.30
2015,04,18,10,04,10.30
2015,04,18,10,05,10.30
2015,04,18,10,06,10.30
2015,04,18,10,07,10.40
2015,04,18,10,08,10.40
2015,04,18,10,09,10.40
2015,04,18,10,10,10.40
2015,04,18,10,11,10.40
2015,04,18,10,12,10.40
2015,04,18,10,13,10.40
2015,04,18,10,14,10.40
2015,04,18,10,15,10.50
2015,04,18,10,16,10.50
2015,04,18,10,17,10.50
2015,04,18,10,18,10.50
2015,04,18,10,19,10.60
2015,04,18,10,20,10.60
2015,04,18,10,21,10.70
2015,04,18,10,22,10.70
2015,04,18,10,23,10.80
2015,04,18,10,24,10.90
2015,04,18,10,25,10.90
2015,04,18,10,26,11.00
2015,04,18,10,27,11.10
2015,04,18,10,28,11.10
2015,04,18,10,29,11.20
2015,04,18,10,30,11.20
2015,04,18,10,31,11.10
2015,04,18,10,32,11.10
2015,04,18,10,33,11.10
2015,04,18,10,34,11.10
2015,04,18,10,35,11.00
2015,04,18,10,36,11.00
2015,04,18,10,37,11.10
2015,04,18,10,38,11.10
2015,04,18,10,39,11.10
2015,04,18,10,40,11.10
2015,04,18,10,41,11.10
2015,04,18,10,42,11.20
2015,04,18,10,43,11.20
2015,04,18,10,44,11.20
2015,04,18,10,45,11.30
2015,04,18,10,46,11.30
2015,04,18,10,47,11.40
2015,04,18,10,48,11.40
2015,04,18,10,49,11.40
2015,04,18,10,50,11.40
2015,04,18,10,51,11.40
2015,04,18,10,52,11.40
2015,04,18,10,53,11.40
2015,04,18,10,54,11.40
2015,04,18,10,55,11.40
2015,04,18,10,56,11.30
2015,04,18,10,57,11.30
2015,04,18,10,58,11.30
2015,04,18,10,59,11.30
2015,04,18,11,00,11.30
2015,04,18,11,01,11.30
2015,04,18,11,02,11.30
2015,04,18,11,03,11.30
2015,04,18,11,04,11.40
2015,04,18,11,05,11.40
2015,04,18,11,06,11.50
2015,04,18,11,07,11.60
2015,04,18,11,08,11.60
2015,04,18,11,09,11.60
2015,04,18,11,10,11.60
2015,04,18,11,11,11.60
2015,04,18,11,12,11.60
2015,04,18,11,13,11.60
2015,04,18,11,14,11.60
2015,04,18,11,15,11.70
2015,04,18,11,16,11.70
2015,04,18,11,17,11.80
2015,04,18,11,18,11.80
2015,04,18,11,19,11.80
2015,04,18,11,20,11.80
2015,04,18,11,21,11.70
2015,04,18,11,22,11.70
2015,04,18,11,23,11.80
2015,04,18,11,24,11.80
2015,04,18,11,25,11.80
2015,04,18,11,26,11.80
2015,04,18,11,27,11.80
2015,04,18,11,28,11.90
2015,04,18,11,29,11.90
2015,04,18,11,30,12.00
2015,04,18,11,31,12.00
2015,04,18,11,32,12.00
2015,04,18,11,33,12.00
2015,04,18,11,34,12.00
2015,04,18,11,35,12.00
2015,04,18,11,36,12.00
2015,04,18,11,37,12.00
2015,04,18,11,38,12.10
2015,04,18,11,39,12.10
2015,04,18,11,40,12.10
2015,04,18,11,41,12.10
2015,04,18,11,42,12.20
2015,04,18,11,43,12.20
2015,04,18,11,44,12.20
2015,04,18,11,45,12.30
2015,04,18,11,46,12.30
2015,04,18,11,47,12.30
2015,04,18,11,48,12.40
2015,04,18,11,49,12.40
2015,04,18,11,50,12.40
2015,04,18,11,51,12.50
2015,04,18,11,52,12.60
2015,04,18,11,53,12.70
2015,04,18,11,54,12.80
2015,04,18,11,55,12.90
2015,04,18,11,56,12.90
2015,04,18,11,57,12.90
2015,04,18,11,58,12.90
2015,04,18,11,59,13.00
2015,04,18,12,00,13.00
2015,04,18,12,01,13.10
2015,04,18,12,02,13.20
2015,04,18,12,03,13.20
2015,04,18,12,04,13.20
2015,04,18,12,05,13.30
2015,04,18,12,06,13.30
2015,04,18,12,07,13.30
2015,04,18,12,08,13.30
2015,04,18,12,09,13.30
2015,04,18,12,10,13.30
2015,04,18,12,11,13.30
2015,04,18,12,12,13.20
2015,04,18,12,13,13.20
2015,04,18,12,14,13.10
2015,04,18,12,15,13.00
2015,04,18,12,16,13.00
2015,04,18,12,17,13.00
2015,04,18,12,18,12.90
2015,04,18,12,19,12.90
2015,04,18,12,20,12.90
2015,04,18,12,21,12.90
2015,04,18,12,22,12.90
2015,04,18,12,23,12.90
2015,04,18,12,24,12.90
2015,04,18,12,25,12.90
2015,04,18,12,26,12.90
2015,04,18,12,27,12.90
2015,04,18,12,28,13.00
2015,04,18,12,29,13.10
2015,04,18,12,30,13.10
2015,04,18,12,31,13.10
2015,04,18,12,32,13.10
2015,04,18,12,33,13.10
2015,04,18,12,34,13.10
2015,04,18,12,35,13.20
2015,04,18,12,36,13.20
2015,04,18,12,37,13.20
2015,04,18,12,38,13.20
2015,04,18,12,39,13.30
2015,04,18,12,40,13.30
2015,04,18,12,41,13.30
2015,04,18,12,42,13.30
2015,04,18,12,43,13.40
2015,04,18,12,44,13.40
2015,04,18,12,45,13.50
2015,04,18,12,46,13.50
2015,04,18,12,47,13.50
2015,04,18,12,48,13.50
2015,04,18,12,49,13.40
2015,04,18,12,50,13.40
2015,04,18,12,51,13.40
2015,04,18,12,52,13.50
2015,04,18,12,53,13.50
2015,04,18,12,54,13.40
2015,04,18,12,55,13.50
2015,04,18,12,56,13.40
2015,04,18,12,57,13.50
2015,04,18,12,58,13.50
2015,04,18,12,59,13.60
2015,04,18,13,00,13.60
2015,04,18,13,01,13.70
2015,04,18,13,02,13.70
2015,04,18,13,03,13.70
2015,04,18,13,04,13.60
2015,04,18,13,05,13.60
2015,04,18,13,06,13.60
2015,04,18,13,07,13.60
2015,04,18,13,08,13.60
2015,04,18,13,09,13.60
2015,04,18,13,10,13.50
2015,04,18,13,11,13.40
2015,04,18,13,12,13.40
2015,04,18,13,13,13.30
2015,04,18,13,14,13.30
2015,04,18,13,15,13.20
2015,04,18,13,16,13.20
2015,04,18,13,17,13.10
2015,04,18,13,18,13.10
2015,04,18,13,19,13.10
2015,04,18,13,20,13.10
2015,04,18,13,21,13.10
2015,04,18,13,22,13.20
2015,04,18,13,23,13.20
2015,04,18,13,24,13.20
2015,04,18,13,25,13.20
2015,04,18,13,26,13.20
2015,04,18,13,27,13.20
2015,04,18,13,28,13.20
2015,04,18,13,29,13.20
2015,04,18,13,30,13.30
2015,04,18,13,31,13.30
2015,04,18,13,32,13.20
2015,04,18,13,33,13.20
2015,04,18,13,34,13.20
2015,04,18,13,35,13.20
2015,04,18,13,36,13.30
2015,04,18,13,37,13.30
2015,04,18,13,38,13.40
2015,04,18,13,39,13.40
2015,04,18,13,40,13.50
2015,04,18,13,41,13.50
2015,04,18,13,42,13.60
2015,04,18,13,43,13.50
2015,04,18,13,44,13.50
2015,04,18,13,45,13.50
2015,04,18,13,46,13.60
2015,04,18,13,47,13.60
2015,04,18,13,48,13.70
2015,04,18,13,49,13.70
2015,04,18,13,50,13.70
2015,04,18,13,51,13.70
2015,04,18,13,52,13.80
2015,04,18,13,53,13.80
2015,04,18,13,54,13.90
2015,04,18,13,55,13.90
2015,04,18,13,56,14.00
2015,04,18,13,57,14.00
2015,04,18,13,58,14.10
2015,04,18,13,59,14.10
2015,04,18,14,00,14.10
2015,04,18,14,01,14.20
2015,04,18,14,02,14.20
2015,04,18,14,03,14.30
2015,04,18,14,04,14.30
2015,04,18,14,05,14.30
2015,04,18,14,06,14.20
2015,04,18,14,07,14.20
2015,04,18,14,08,14.20
2015,04,18,14,09,14.20
2015,04,18,14,10,14.20
2015,04,18,14,11,14.20
2015,04,18,14,12,14.30
2015,04,18,14,13,14.30
2015,04,18,14,14,14.30
2015,04,18,14,15,14.30
2015,04,18,14,16,14.30
2015,04,18,14,17,14.30
2015,04,18,14,18,14.40
2015,04,18,14,19,14.40
2015,04,18,14,20,14.30
2015,04,18,14,21,14.30
2015,04,18,14,22,14.20
2015,04,18,14,23,14.20
2015,04,18,14,24,14.20
2015,04,18,14,25,14.20
2015,04,18,14,26,14.20
2015,04,18,14,27,14.30
2015,04,18,14,28,14.30
2015,04,18,14,29,14.40
2015,04,18,14,30,14.60
2015,04,18,14,31,14.70
2015,04,18,14,32,14.80
2015,04,18,14,33,14.90
2015,04,18,14,34,14.90
2015,04,18,14,35,14.90
2015,04,18,14,36,14.90
2015,04,18,14,37,14.90
2015,04,18,14,38,14.90
2015,04,18,14,39,14.90
2015,04,18,14,40,14.90
2015,04,18,14,41,14.80
2015,04,18,14,42,14.80
2015,04,18,14,43,14.80
2015,04,18,14,44,14.80
2015,04,18,14,45,14.80
2015,04,18,14,46,14.90
2015,04,18,14,47,15.00
2015,04,18,14,48,15.10
2015,04,18,14,49,15.20
2015,04,18,14,50,15.30
2015,04,18,14,51,15.40
2015,04,18,14,52,15.50
2015,04,18,14,53,15.60
2015,04,18,14,54,15.60
2015,04,18,14,55,15.50
2015,04,18,14,56,15.50
2015,04,18,14,57,15.40
2015,04,18,14,58,15.40
2015,04,18,14,59,15.30
2015,04,18,15,00,15.30
2015,04,18,15,01,15.30
2015,04,18,15,02,15.40
2015,04,18,15,03,15.40
2015,04,18,15,04,15.50
2015,04,18,15,05,15.50
2015,04,18,15,06,15.60
2015,04,18,15,07,15.60
2015,04,18,15,08,15.70
2015,04,18,15,09,15.70
2015,04,18,15,10,15.70
2015,04,18,15,11,15.70
2015,04,18,15,12,15.60
2015,04,18,15,13,15.60
2015,04,18,15,14,15.60
2015,04,18,15,15,15.50
2015,04,18,15,16,15.50
2015,04,18,15,17,15.60
2015,04,18,15,18,15.60
2015,04,18,15,19,15.60
2015,04,18,15,20,15.60
2015,04,18,15,21,15.60
2015,04,18,15,22,15.60
2015,04,18,15,23,15.60
2015,04,18,15,24,15.70
2015,04,18,15,25,15.70
2015,04,18,15,26,15.70
2015,04,18,15,27,15.70
2015,04,18,15,28,15.80
2015,04,18,15,29,15.80
2015,04,18,15,30,15.80
2015,04,18,15,31,15.80
2015,04,18,15,32,15.80
2015,04,18,15,33,15.70
2015,04,18,15,34,15.70
2015,04,18,15,35,15.80
2015,04,18,15,36,15.80
2015,04,18,15,37,15.80
2015,04,18,15,38,15.80
2015,04,18,15,39,15.80
2015,04,18,15,40,15.80
2015,04,18,15,41,15.80
2015,04,18,15,42,15.80
2015,04,18,15,43,15.70
2015,04,18,15,44,15.70
2015,04,18,15,45,15.80
2015,04,18,15,46,15.70
2015,04,18,15,47,15.70
2015,04,18,15,48,15.70
2015,04,18,15,49,15.70
2015,04,18,15,50,15.70
2015,04,18,15,51,15.70
2015,04,18,15,52,15.60
2015,04,18,15,53,15.50
2015,04,18,15,54,15.50
2015,04,18,15,55,15.40
2015,04,18,15,56,15.40
2015,04,18,15,57,15.40
2015,04,18,15,58,15.30
2015,04,18,15,59,15.30
2015,04,18,16,00,15.20
2015,04,18,16,01,15.20
2015,04,18,16,02,15.20
2015,04,18,16,03,15.20
2015,04,18,16,04,15.20
2015,04,18,16,05,15.20
2015,04,18,16,06,15.20
2015,04,18,16,07,15.20
2015,04,18,16,08,15.30
2015,04,18,16,09,15.30
2015,04,18,16,10,15.30
2015,04,18,16,11,15.30
2015,04,18,16,12,15.30
2015,04,18,16,13,15.30
2015,04,18,16,14,15.30
2015,04,18,16,15,15.30
2015,04,18,16,16,15.30
2015,04,18,16,17,15.40
2015,04,18,16,18,15.40
2015,04,18,16,19,15.50
2015,04,18,16,20,15.50
2015,04,18,16,21,15.60
2015,04,18,16,22,15.60
2015,04,18,16,23,15.60
2015,04,18,16,24,15.60
2015,04,18,16,25,15.70
2015,04,18,16,26,15.70
2015,04,18,16,27,15.80
2015,04,18,16,28,15.90
2015,04,18,16,29,15.90
2015,04,18,16,30,15.90
2015,04,18,16,31,15.90
2015,04,18,16,32,15.90
2015,04,18,16,33,16.00
2015,04,18,16,34,16.00
2015,04,18,16,35,16.00
2015,04,18,16,36,16.10
2015,04,18,16,37,16.10
2015,04,18,16,38,16.10
2015,04,18,16,39,16.10
2015,04,18,16,40,16.20
2015,04,18,16,41,16.20
2015,04,18,16,42,16.30
2015,04,18,16,43,16.40
2015,04,18,16,44,16.40
2015,04,18,16,45,16.40
2015,04,18,16,46,16.40
2015,04,18,16,47,16.40
2015,04,18,16,48,16.40
2015,04,18,16,49,16.50
2015,04,18,16,50,16.50
2015,04,18,16,51,16.50
2015,04,18,16,52,16.50
2015,04,18,16,53,16.50
2015,04,18,16,54,16.50
2015,04,18,16,55,16.60
2015,04,18,16,56,16.60
2015,04,18,16,57,16.70
2015,04,18,16,58,16.70
2015,04,18,16,59,16.80
2015,04,18,17,00,16.80
2015,04,18,17,01,16.80
2015,04,18,17,02,16.80
2015,04,18,17,03,16.80
2015,04,18,17,04,16.70
2015,04,18,17,05,16.70
2015,04,18,17,06,16.70
2015,04,18,17,07,16.70
2015,04,18,17,08,16.70
2015,04,18,17,09,16.80
2015,04,18,17,10,16.80
2015,04,18,17,11,16.80
2015,04,18,17,12,16.90
2015,04,18,17,13,16.90
2015,04,18,17,14,16.90
2015,04,18,17,15,16.80
2015,04,18,17,16,16.80
2015,04,18,17,17,16.80
2015,04,18,17,18,16.80
2015,04,18,17,19,16.80
2015,04,18,17,20,16.80
2015,04,18,17,21,16.80
2015,04,18,17,22,16.80
2015,04,18,17,23,16.80
2015,04,18,17,24,16.80
2015,04,18,17,25,16.80
2015,04,18,17,26,16.80
2015,04,18,17,27,16.80
2015,04,18,17,28,16.80
2015,04,18,17,29,16.80
2015,04,18,17,30,16.80
2015,04,18,17,31,16.80
2015,04,18,17,32,16.90
2015,04,18,17,33,16.90
2015,04,18,17,34,16.90
2015,04,18,17,35,17.00
2015,04,18,17,36,17.00
2015,04,18,17,37,17.00
2015,04,18,17,38,17.00
2015,04,18,17,39,17.00
2015,04,18,17,40,17.00
2015,04,18,17,41,17.00
2015,04,18,17,42,17.00